STARLINK-4726 (53802 NORAD) Tracking and Keplerian Element Data

This shows tracking and keplerian element data for the satellite.

Feedback or suggestion? Click here.




ElementValue
Catalog53802
NameSTARLINK-4726
Epoch Orbit1113
Epoch Day325.33334491
Epoch Year2022
RAAN274.7136
Inclination53.217
Eccentricity0.0001171
Argument of Perigee66.2535
Mean Anonmoly241.3405
Mean Motion15.57952358
Decay Rate-0.0112812
L11 53802U 22111AF 22325.33334491 -.01128120 00000+0 -16381-1 0 9995
L22 53802 53.2170 274.7136 0001171 66.2535 241.3405 15.57952358 11130



Live tracking and technical data element details for STARLINK-4726 (NORAD 53802). STARLINK-4726 can be tracked NOW for your location showing map with azimuth and elevation plus other details from your city location.







IsCatalogInMostPopularTable: catalog: 53802, numindb: -1

Insert: records affected: 1


GetName: 53802 STARLINK-4726

Hit Count: inserted at: Thu, 08 Dec 2022 08:52:17 GMT